This is the latest recevied weather packets stored in our database for station/object N4TLC. If no packets are shown the sender has not sent any weather packets the latest 10 day(s).
| Time | Temp. | Humidity | Pressure | Rain* | Wind** | Luminosity | Snow |
|---|---|---|---|---|---|---|---|
| 1776953803 | 23.33° C | 38% | 1020.6 hPa | 0 mm | - | 57 W/m² | - |
| 1776953499 | 23.33° C | 40% | 1020.6 hPa | 0 mm | - | 57 W/m² | - |
| 1776953198 | 23.33° C | 40% | 1020.5 hPa | 0 mm | - | 56 W/m² | - |
| 1776952898 | 22.78° C | 40% | 1020.5 hPa | 0 mm | - | 55 W/m² | - |
| 1776952595 | 22.78° C | 41% | 1020.4 hPa | 0 mm | - | 54 W/m² | - |
| 1776952291 | 22.22° C | 41% | 1020.4 hPa | 0 mm | - | 54 W/m² | - |
| 1776951988 | 21.67° C | 46% | 1020.5 hPa | 0 mm | - | 53 W/m² | - |
| 1776951685 | 21.67° C | 48% | 1020.5 hPa | 0 mm | - | 52 W/m² | - |
| 1776951381 | 21.11° C | 51% | 1020.6 hPa | 0 mm | - | 51 W/m² | - |
| 1776951078 | 20.56° C | 51% | 1020.6 hPa | 0 mm | - | 51 W/m² | - |
| 1776950774 | 20° C | 54% | 1020.8 hPa | 0 mm | - | 50 W/m² | - |
| 1776950470 | 20° C | 54% | 1020.7 hPa | 0 mm | - | 49 W/m² | - |
| 1776950169 | 19.44° C | 58% | 1020.6 hPa | 0 mm | - | 49 W/m² | - |
| 1776949866 | 18.89° C | 60% | 1020.6 hPa | 0 mm | - | 48 W/m² | - |
| 1776949562 | 18.89° C | 60% | 1020.5 hPa | 0 mm | - | 47 W/m² | - |
| 1776949257 | 18.33° C | 61% | 1020.6 hPa | 0 mm | - | 47 W/m² | - |
| 1776948953 | 17.78° C | 64% | 1020.6 hPa | 0 mm | - | 46 W/m² | - |
| 1776948649 | 17.22° C | 66% | 1020.6 hPa | 0 mm | - | 45 W/m² | - |
| 1776948347 | 16.67° C | 67% | 1020.4 hPa | 0 mm | - | 45 W/m² | - |
| 1776948046 | 16.11° C | 70% | 1020.5 hPa | 0 mm | - | 44 W/m² | - |
| 1776947742 | 15.56° C | 71% | 1020.6 hPa | 0 mm | - | 43 W/m² | - |
| 1776947437 | 15.56° C | 73% | 1020.5 hPa | 0 mm | - | 42 W/m² | - |
| 1776947135 | 15° C | 75% | 1020.6 hPa | 0 mm | - | 41 W/m² | - |
| 1776946831 | 15° C | 77% | 1020.7 hPa | 0 mm | - | 41 W/m² | - |
| 1776946527 | 14.44° C | 79% | 1020.4 hPa | 0 mm | - | 40 W/m² | - |
* Rain latest hour (hover to see other rain measurements)
** Current wind speed in m/s (hover to see current wind gust speed)